FW2462 Weather Reports


Display with metric or nautical units.
time (UTC)temp
F
wind
direction
speed
MPH
gust
MPH
rain 1hr
in
rain 24hr
in
rain mn
in
humidity
%
barometer
mb
20260508085214 43 6 0.0 0.0 0.00 0.16 0.00 98 1017.9
20260508084709 43 6 0.0 0.0 0.00 0.16 0.00 97 1018.0
20260508084203 43 6 0.0 0.0 0.00 0.16 0.00 97 1017.9
20260508083657 43 6 0.0 0.0 0.00 0.16 0.00 97 1017.9
20260508083151 43 6 0.0 0.0 0.00 0.16 0.00 97 1017.9
20260508082644 44 6 0.0 0.0 0.00 0.16 0.00 97 1017.6
20260508082139 44 6 0.0 0.0 0.00 0.16 0.00 98 1017.6
20260508081633 44 6 0.0 0.0 0.00 0.16 0.00 98 1017.6
20260508081127 44 6 0.0 0.0 0.00 0.16 0.00 98 1017.5
20260508080621 43 6 0.0 0.0 0.00 0.16 0.00 97 1017.5
20260508080338 44 6 0.0 0.0 0.00 0.16 0.00 97 1017.5
20260508075609 44 6 0.0 0.0 0.00 0.16 0.00 97 1017.4
20260508075103 44 6 0.0 0.0 0.00 0.16 0.00 97 1017.5
20260508074556 44 6 0.0 0.0 0.00 0.16 0.00 97 1017.5
20260508074539 44 6 0.0 0.0 0.00 0.16 0.00 97 1017.5
20260508073545 44 6 0.0 0.0 0.00 0.16 0.00 97 1017.4
20260508073038 44 6 0.0 0.0 0.00 0.16 0.00 97 1017.4
20260508072532 44 6 0.0 0.0 0.00 0.16 0.00 97 1017.4
20260508072244 44 6 0.0 0.0 0.00 0.16 0.00 97 1017.5
20260508071521 44 6 0.0 0.0 0.00 0.16 0.00 97 1017.4
20260508071014 44 6 0.0 0.0 0.00 0.16 0.00 97 1017.4
20260508070510 44 6 0.0 0.0 0.00 0.16 0.00 97 1017.3
20260508070002 45 6 0.0 0.0 0.00 0.16 0.00 97 1017.2
20260508065457 45 6 0.0 0.0 0.00 0.16 0.00 97 1017.0
20260508064950 45 6 0.0 0.0 0.00 0.16 0.00 97 1017.3
20260508064445 45 6 0.0 0.0 0.00 0.16 0.00 97 1017.4
20260508063938 45 6 0.0 0.0 0.00 0.16 0.00 97 1017.4
20260508063432 45 6 0.0 0.0 0.00 0.16 0.00 97 1017.2
20260508062926 45 6 0.0 0.0 0.00 0.16 0.00 97 1017.2
20260508062421 45 6 0.0 0.0 0.00 0.16 0.00 96 1017.4
20260508061914 45 6 0.0 0.0 0.00 0.16 0.00 96 1017.4
20260508061409 45 6 0.0 0.0 0.00 0.16 0.00 96 1017.4
20260508061355 46 6 0.0 0.0 0.00 0.16 0.00 96 1017.3
20260508060626 46 6 0.0 0.0 0.00 0.16 0.00 96 1017.3
20260508055850 46 6 0.0 0.0 0.00 0.16 0.00 95 1017.2
20260508055345 47 6 0.0 0.0 0.00 0.16 0.00 95 1017.3
20260508055102 47 6 0.0 0.0 0.00 0.16 0.00 95 1017.3
20260508054333 47 6 0.0 1.0 0.00 0.16 0.00 94 1017.4
20260508054049 47 6 0.0 2.0 0.00 0.16 0.00 94 1017.2
20260508053320 48 7 0.0 2.0 0.00 0.16 0.00 94 1017.2
20260508052814 49 354 0.0 1.0 0.00 0.16 0.00 93 1017.0
20260508052527 49 347 0.0 1.0 0.00 0.16 0.00 93 1017.0
20260508051803 49 340 0.0 2.0 0.00 0.16 0.00 90 1016.9
20260508051256 49 340 0.0 2.0 0.00 0.16 0.00 89 1016.8
20260508050754 49 186 0.0 2.0 0.00 0.17 0.00 90 1016.9
20260508050024 49 296 0.0 1.0 0.00 0.18 0.00 90 1016.8
20260508045319 49 296 0.0 1.0 0.00 0.18 0.00 89 1016.8
20260508044255 49 300 0.0 1.0 0.00 0.18 0.00 90 1016.9
20260508043749 49 300 0.0 1.0 0.00 0.18 0.00 90 1016.7
20260508043248 49 300 0.0 1.0 0.00 0.18 0.00 89 1016.7
20260508042746 49 300 0.0 1.0 0.00 0.18 0.00 90 1016.6
20260508042245 49 306 0.0 1.0 0.00 0.18 0.00 91 1016.5
20260508041744 49 323 0.0 3.0 0.00 0.18 0.00 91 1016.5
20260508041245 49 323 0.0 3.0 0.00 0.18 0.00 91 1016.5
20260508040745 49 230 0.0 1.0 0.00 0.18 0.00 91 1016.4
20260508040245 49 255 0.0 1.0 0.00 0.18 0.00 90 1016.5
20260508035738 49 255 0.0 1.0 0.00 0.18 0.18 90 1016.4
20260508035500 49 268 0.0 1.0 0.00 0.18 0.18 90 1016.4
20260508034726 49 268 0.0 2.0 0.00 0.18 0.18 90 1016.3
20260508034220 49 267 0.0 2.0 0.00 0.18 0.18 92 1016.3
20260508033714 49 259 0.0 2.0 0.00 0.18 0.18 92 1016.2
20260508033208 49 248 0.0 2.0 0.00 0.18 0.18 92 1016.2
20260508032702 49 259 0.0 1.0 0.00 0.18 0.18 94 1016.2
20260508032156 49 259 0.0 1.0 0.00 0.19 0.18 94 1016.2
20260508031650 49 321 0.0 0.0 0.00 0.19 0.18 94 1016.1
20260508031144 49 330 0.0 0.0 0.00 0.20 0.18 94 1016.1
20260508030644 49 330 0.0 0.0 0.00 0.20 0.18 94 1016.2
20260508030141 49 330 0.0 1.0 0.00 0.21 0.18 94 1016.2
20260508025640 49 330 0.0 1.0 0.00 0.22 0.18 95 1016.2
20260508025140 49 334 0.0 2.0 0.00 0.23 0.18 95 1016.1
20260508024913 49 334 0.0 2.0 0.00 0.23 0.18 95 1016.1
20260508024139 49 180 0.0 1.0 0.00 0.24 0.18 96 1016.0
20260508024123 49 280 0.0 1.0 0.00 0.24 0.18 95 1015.9
20260508023138 50 279 0.0 1.0 0.00 0.24 0.18 95 1015.8
20260508022635 50 242 0.0 1.0 0.00 0.24 0.18 95 1015.7
20260508022133 50 238 0.0 1.0 0.00 0.24 0.18 95 1015.7
20260508021633 50 228 0.0 1.0 0.00 0.24 0.18 95 1015.6
20260508021413 50 228 0.0 1.0 0.00 0.24 0.18 94 1015.5
20260508020632 51 228 0.0 1.0 0.00 0.24 0.18 94 1015.5
20260508020133 51 229 0.0 1.0 0.00 0.24 0.18 95 1015.4
20260508015634 51 224 0.0 2.0 0.00 0.25 0.18 95 1015.4
20260508015348 51 240 0.0 2.0 0.00 0.25 0.18 96 1015.3
20260508014629 51 261 0.0 1.0 0.00 0.25 0.18 96 1015.2
20260508014130 51 259 0.0 1.0 0.00 0.25 0.18 97 1015.1
20260508013630 51 259 0.0 1.0 0.00 0.25 0.18 97 1015.1
20260508013128 51 259 0.0 0.0 0.00 0.25 0.18 97 1015.0
20260508012852 51 259 0.0 1.0 0.00 0.25 0.18 97 1014.9
20260508012130 51 259 0.0 1.0 0.00 0.25 0.18 97 1014.8
20260508011630 52 191 0.0 1.0 0.00 0.25 0.18 97 1014.8
20260508011130 52 318 0.0 0.0 0.00 0.26 0.18 97 1014.6
20260508010624 52 353 0.0 2.0 0.00 0.26 0.18 97 1014.5
20260508010126 53 353 0.0 2.0 0.00 0.26 0.18 97 1014.5
20260508005625 53 215 0.0 2.0 0.00 0.27 0.18 97 1014.4
20260508005126 53 328 0.0 1.0 0.00 0.27 0.18 97 1014.4
20260508004624 53 356 1.0 6.0 0.00 0.27 0.18 98 1014.4
20260508004124 53 356 1.0 6.0 0.00 0.27 0.18 98 1014.5
20260508003624 53 232 0.0 2.0 0.00 0.27 0.18 98 1014.6
20260508003125 54 156 0.0 1.0 0.00 0.28 0.18 98 1014.5
20260508002855 54 284 0.0 2.0 0.00 0.28 0.18 98 1014.5
20260508002119 54 281 0.0 2.0 0.00 0.28 0.18 98 1014.5
20260508001827 54 285 0.0 0.0 0.00 0.28 0.18 98 1014.4
20260508001703 54 29 0.0 1.0 0.00 0.28 0.18 98 1014.6
20260508000829 55 285 0.0 0.0 0.00 0.28 0.18 98 1014.4
20260508000055 55 285 0.0 0.0 0.00 0.28 0.18 98 1014.2
20260507235819 55 285 0.0 0.0 0.00 0.28 0.18 98 1014.2
20260507235043 55 304 0.0 0.0 0.00 0.28 0.18 98 1014.2
20260507234536 55 304 0.0 0.0 0.00 0.28 0.18 98 1014.2
20260507234506 56 304 0.0 0.0 0.00 0.28 0.18 98 1014.1
20260507233525 56 285 0.0 1.0 0.00 0.28 0.18 98 1014.0
20260507233026 56 285 0.0 1.0 0.00 0.28 0.18 98 1014.0
20260507232524 56 286 0.0 0.0 0.00 0.28 0.18 98 1013.8
20260507232022 56 286 0.0 1.0 0.00 0.28 0.18 98 1013.9
20260507231022 56 290 0.0 1.0 0.00 0.28 0.18 98 1013.4
20260507230522 56 24 0.0 2.0 0.00 0.28 0.18 98 1013.4
20260507230023 56 25 0.0 2.0 0.00 0.28 0.18 98 1013.4
20260507225523 56 23 0.0 2.0 0.00 0.28 0.18 98 1013.7
20260507225022 56 243 0.0 2.0 0.00 0.28 0.18 98 1013.4
20260507224520 56 250 0.0 2.0 0.00 0.28 0.18 97 1013.4
20260507224020 56 279 0.0 4.0 0.00 0.28 0.18 97 1013.2
20260507223521 57 237 0.0 4.0 0.00 0.28 0.18 97 1013.3
20260507223021 57 31 0.0 3.0 0.00 0.28 0.18 97 1013.1
20260507222744 57 274 0.0 1.0 0.00 0.28 0.18 97 1013.3
20260507221518 57 264 0.0 2.0 0.00 0.28 0.18 97 1013.2
20260507221019 58 12 1.0 2.0 0.00 0.28 0.18 97 1013.3
20260507220513 58 1 1.0 5.0 0.00 0.28 0.18 98 1013.0
20260507220006 58 293 1.0 5.0 0.00 0.28 0.18 97 1013.0
20260507215501 58 32 0.0 5.0 0.00 0.28 0.18 98 1013.0
20260507215218 58 150 0.0 4.0 0.00 0.28 0.18 98 1012.9
20260507214709 58 17 1.0 4.0 0.00 0.28 0.18 98 1012.9
20260507213943 58 63 1.0 5.0 0.00 0.28 0.18 98 1013.0
20260507212931 57 306 1.0 5.0 0.00 0.28 0.18 98 1012.8
20260507212425 57 243 1.0 5.0 0.00 0.28 0.18 98 1012.9
20260507212143 58 255 1.0 5.0 0.00 0.28 0.18 98 1012.8
20260507211413 58 355 1.0 5.0 0.00 0.28 0.18 98 1012.8
20260507210907 57 359 2.0 5.0 0.00 0.28 0.18 98 1012.8
20260507210401 58 41 2.0 5.0 0.00 0.28 0.18 98 1012.7
20260507210115 58 52 1.0 4.0 0.00 0.28 0.18 98 1012.6
20260507205605 58 66 0.0 2.0 0.00 0.28 0.18 99 1012.7
20260507204843 58 28 0.0 3.0 0.00 0.28 0.18 99 1012.6
20260507204337 57 53 0.0 3.0 0.01 0.28 0.18 98 1012.5
20260507204326 57 355 0.0 3.0 0.06 0.28 0.18 98 1012.7
20260507203548 57 20 0.0 3.0 0.06 0.28 0.18 98 1012.8
20260507202819 57 269 1.0 6.0 0.06 0.28 0.18 99 1012.7
20260507202312 57 37 1.0 6.0 0.07 0.28 0.18 98 1012.8
20260507201806 57 329 1.0 4.0 0.07 0.28 0.18 98 1013.0
20260507201303 57 15 2.0 9.0 0.07 0.28 0.18 98 1013.1
20260507200754 56 345 1.0 9.0 0.07 0.28 0.18 98 1013.0
20260507200249 57 46 2.0 7.0 0.07 0.28 0.18 98 1013.0
20260507195743 57 22 2.0 7.0 0.07 0.28 0.18 98 1013.0
20260507195237 57 4 2.0 6.0 0.07 0.28 0.18 98 1013.2
20260507194730 57 41 1.0 6.0 0.07 0.28 0.18 99 1013.2
20260507194225 56 65 2.0 8.0 0.05 0.26 0.17 99 1013.0
20260507193719 56 30 3.0 10.0 0.01 0.22 0.12 98 1013.2
20260507193212 56 46 2.0 10.0 0.01 0.22 0.12 98 1013.2
20260507192931 56 23 2.0 6.0 0.00 0.21 0.11 98 1013.1
20260507192201 56 351 1.0 5.0 0.00 0.21 0.11 98 1013.0
20260507191655 56 54 1.0 4.0 0.00 0.21 0.11 98 1012.9
20260507191151 57 54 1.0 4.0 0.00 0.21 0.11 98 1012.7
20260507190643 57 357 1.0 4.0 0.00 0.21 0.11 98 1012.9
20260507190401 57 30 1.0 4.0 0.00 0.21 0.11 98 1013.0
20260507185637 57 27 1.0 7.0 0.00 0.21 0.11 98 1013.2
20260507185137 57 262 2.0 9.0 0.00 0.21 0.11 98 1013.2
20260507184637 58 76 2.0 9.0 0.00 0.21 0.11 98 1012.9
20260507184133 58 317 1.0 5.0 0.00 0.21 0.11 98 1013.0
20260507183633 58 20 2.0 13.0 0.00 0.21 0.11 98 1013.0
20260507183134 58 53 3.0 13.0 0.00 0.21 0.11 98 1013.0
20260507182637 59 341 2.0 7.0 0.00 0.21 0.11 98 1013.1
20260507182359 59 58 1.0 7.0 0.00 0.21 0.11 98 1013.0
20260507181633 59 47 1.0 10.0 0.00 0.21 0.11 98 1013.0
20260507181131 59 46 1.0 10.0 0.00 0.21 0.11 98 1012.9
20260507180629 59 98 2.0 8.0 0.00 0.21 0.11 98 1012.9
20260507180130 59 63 2.0 8.0 0.00 0.21 0.11 98 1013.1
20260507175629 59 58 1.0 7.0 0.00 0.21 0.11 98 1013.0
20260507175129 59 27 1.0 8.0 0.01 0.21 0.11 98 1013.1
20260507174855 59 347 2.0 8.0 0.01 0.21 0.11 98 1013.1
20260507174128 59 49 2.0 7.0 0.02 0.21 0.11 98 1013.1
20260507173626 60 344 1.0 5.0 0.04 0.22 0.11 98 1013.1
20260507173126 60 10 2.0 7.0 0.05 0.22 0.11 98 1013.1
20260507172621 60 53 2.0 9.0 0.05 0.22 0.11 98 1013.2
20260507172111 60 41 2.0 9.0 0.06 0.22 0.11 98 1013.2
20260507171606 61 56 1.0 6.0 0.07 0.22 0.11 98 1013.3
20260507171105 61 355 1.0 5.0 0.07 0.23 0.11 98 1013.3
20260507170605 61 46 1.0 5.0 0.07 0.23 0.11 98 1013.2
20260507170119 61 77 0.0 3.0 0.07 0.23 0.11 98 1013.2
20260507170107 61 114 1.0 5.0 0.07 0.23 0.11 98 1013.1
20260507165106 61 70 1.0 8.0 0.06 0.22 0.10 98 1013.0
20260507164609 61 67 2.0 8.0 0.06 0.22 0.10 98 1013.0
20260507164108 61 354 1.0 4.0 0.05 0.21 0.09 98 1012.8
20260507163608 61 56 0.0 2.0 0.03 0.19 0.07 98 1012.9
20260507163108 61 348 0.0 2.0 0.02 0.18 0.06 98 1012.9
20260507162603 61 3 0.0 4.0 0.02 0.18 0.06 98 1012.9
20260507162327 61 12 0.0 4.0 0.01 0.17 0.05 98 1012.8
20260507161821 61 81 0.0 3.0 0.00 0.16 0.04 98 1012.8
20260507161104 61 6 0.0 2.0 0.00 0.16 0.04 98 1012.8
20260507160604 61 25 0.0 2.0 0.00 0.16 0.04 98 1012.9
20260507160104 61 7 0.0 2.0 0.00 0.16 0.04 98 1013.0
20260507155604 61 359 0.0 4.0 0.00 0.16 0.04 98 1013.1
20260507155101 61 331 0.0 4.0 0.00 0.16 0.04 98 1013.1
20260507154822 61 30 0.0 4.0 0.00 0.16 0.04 98 1012.8
20260507154101 61 1 0.0 3.0 0.00 0.16 0.04 98 1012.8
20260507153824 61 4 0.0 3.0 0.00 0.16 0.04 98 1012.9
20260507152601 61 5 0.0 3.0 0.00 0.16 0.04 98 1013.1
20260507151601 61 15 0.0 3.0 0.00 0.17 0.04 98 1013.3
20260507151100 61 20 0.0 3.0 0.00 0.17 0.04 98 1013.2
20260507150559 61 17 0.0 3.0 0.00 0.17 0.04 98 1013.2
20260507150056 61 8 1.0 3.0 0.00 0.17 0.04 98 1013.2
20260507145557 61 62 0.0 4.0 0.00 0.17 0.04 98 1013.0
20260507145322 61 8 0.0 4.0 0.00 0.17 0.04 98 1013.2
20260507144554 61 25 0.0 5.0 0.00 0.17 0.04 98 1013.3
20260507144055 61 342 0.0 5.0 0.00 0.17 0.04 98 1013.1
20260507143549 62 7 0.0 1.0 0.00 0.17 0.04 98 1013.1
20260507143044 62 357 0.0 2.0 0.00 0.17 0.04 98 1013.1
20260507142755 62 13 0.0 2.0 0.00 0.17 0.04 98 1012.7
20260507142032 62 40 0.0 3.0 0.00 0.17 0.04 98 1012.9
20260507141526 62 40 1.0 3.0 0.00 0.17 0.04 98 1013.1
20260507141020 62 344 1.0 4.0 0.00 0.17 0.04 98 1012.8
20260507140513 63 336 0.0 4.0 0.00 0.17 0.04 99 1012.5
20260507140007 63 30 0.0 2.0 0.00 0.17 0.04 99 1012.4
20260507135502 63 89 0.0 4.0 0.00 0.17 0.04 99 1012.6
20260507134955 63 326 0.0 4.0 0.00 0.17 0.04 99 1012.6
20260507134450 64 8 0.0 2.0 0.01 0.17 0.04 99 1012.7
20260507133943 64 340 0.0 2.0 0.01 0.17 0.04 99 1012.6
20260507133438 64 41 0.0 0.0 0.01 0.17 0.04 99 1012.6
20260507132932 64 41 0.0 0.0 0.01 0.17 0.04 99 1012.7
20260507132431 63 40 0.0 0.0 0.01 0.17 0.04 99 1012.4
20260507131426 63 94 0.0 1.0 0.01 0.17 0.04 99 1012.9
20260507130926 63 128 0.0 1.0 0.01 0.17 0.04 99 1013.3
20260507130426 63 205 0.0 1.0 0.01 0.17 0.04 99 1013.4
20260507125927 62 205 0.0 1.0 0.01 0.17 0.04 99 1013.2
20260507125425 62 197 0.0 2.0 0.01 0.17 0.04 99 1013.3
20260507124925 62 342 0.0 2.0 0.02 0.17 0.04 99 1013.5
20260507124427 62 273 0.0 1.0 0.01 0.16 0.03 99 1013.8
20260507124150 62 178 0.0 1.0 0.01 0.16 0.03 99 1013.8
20260507123421 62 229 0.0 1.0 0.01 0.16 0.03 99 1014.1
20260507122926 62 250 0.0 1.0 0.01 0.16 0.03 99 1014.0
20260507122640 62 233 0.0 3.0 0.01 0.16 0.03 99 1014.0
20260507121921 62 16 0.0 3.0 0.01 0.16 0.03 99 1014.1
20260507120921 62 217 1.0 4.0 0.01 0.16 0.03 99 1013.7
20260507120423 62 225 0.0 3.0 0.01 0.16 0.03 99 1013.7
20260507115416 62 206 1.0 4.0 0.01 0.16 0.03 99 1013.2
20260507114910 62 226 1.0 3.0 0.00 0.15 0.02 99 1013.4
20260507114404 62 210 1.0 3.0 0.00 0.15 0.02 99 1013.7
20260507113858 62 195 1.0 2.0 0.00 0.15 0.02 99 1013.4
20260507113618 62 207 1.0 2.0 0.00 0.15 0.02 99 1013.5
20260507113112 62 176 0.0 2.0 0.00 0.15 0.02 99 1013.1
20260507112340 62 199 0.0 0.0 0.00 0.15 0.02 99 1012.9
20260507111835 62 199 0.0 0.0 0.00 0.15 0.02 99 1012.8
20260507111328 62 257 0.0 0.0 0.00 0.15 0.02 99 1013.1
20260507110822 62 257 0.0 0.0 0.00 0.15 0.02 99 1013.1
20260507110316 62 257 0.0 0.0 0.00 0.15 0.02 99 1013.0
20260507105810 62 257 0.0 0.0 0.00 0.15 0.02 99 1012.9
20260507105306 62 257 0.0 0.0 0.00 0.15 0.02 99 1012.9
20260507104758 62 257 0.0 0.0 0.00 0.15 0.02 99 1012.8
20260507104252 62 257 0.0 0.0 0.00 0.15 0.02 99 1013.0
20260507103746 62 257 0.0 1.0 0.00 0.15 0.02 99 1013.0
20260507103242 62 257 0.0 1.0 0.00 0.15 0.02 99 1013.0
20260507102734 62 257 0.0 3.0 0.00 0.15 0.02 99 1012.8
20260507102228 62 218 1.0 3.0 0.00 0.15 0.02 99 1012.7
20260507101723 62 217 1.0 3.0 0.00 0.15 0.02 99 1012.6
20260507101216 62 198 1.0 3.0 0.00 0.15 0.02 99 1012.6
20260507100710 62 213 1.0 3.0 0.00 0.15 0.02 99 1012.5
20260507100204 62 211 1.0 3.0 0.00 0.15 0.02 99 1012.6
20260507095658 62 212 0.0 2.0 0.00 0.15 0.02 99 1012.6
20260507095152 62 169 1.0 3.0 0.00 0.15 0.02 99 1012.6
20260507094645 62 214 0.0 3.0 0.00 0.15 0.02 99 1012.6
20260507094356 62 200 0.0 2.0 0.00 0.15 0.02 99 1012.5
20260507093633 62 207 0.0 2.0 0.00 0.15 0.02 99 1012.5
20260507093358 62 239 0.0 1.0 0.00 0.15 0.02 99 1012.3
20260507092622 62 239 0.0 1.0 0.00 0.15 0.02 99 1012.3
20260507092346 62 241 0.0 1.0 0.00 0.15 0.02 99 1012.3
20260507091610 62 204 0.0 0.0 0.00 0.15 0.02 99 1012.3
20260507091104 62 204 0.0 1.0 0.00 0.15 0.02 99 1012.6
20260507090558 62 206 0.0 2.0 0.00 0.15 0.02 99 1012.9
20260507090055 62 207 0.0 2.0 0.00 0.15 0.02 99 1013.0
20260507085815 62 210 0.0 2.0 0.00 0.15 0.02 99 1012.9